Year,Month,Day,Hour,Minute,Value (Times are PST for windspeed in km/hr)
2008,08,30,00,00,0.10
2008,08,30,00,01,0.10
2008,08,30,00,02,0.10
2008,08,30,00,03,0.10
2008,08,30,00,04,0.00
2008,08,30,00,05,0.00
2008,08,30,00,06,1.10
2008,08,30,00,07,0.20
2008,08,30,00,08,0.90
2008,08,30,00,09,0.10
2008,08,30,00,10,0.00
2008,08,30,00,11,0.00
2008,08,30,00,12,0.00
2008,08,30,00,13,0.00
2008,08,30,00,14,0.00
2008,08,30,00,15,1.00
2008,08,30,00,16,0.00
2008,08,30,00,17,0.60
2008,08,30,00,18,3.30
2008,08,30,00,19,0.00
2008,08,30,00,20,0.00
2008,08,30,00,21,0.00
2008,08,30,00,22,0.00
2008,08,30,00,23,1.00
2008,08,30,00,24,0.00
2008,08,30,00,25,0.10
2008,08,30,00,26,0.00
2008,08,30,00,27,0.00
2008,08,30,00,28,0.00
2008,08,30,00,29,0.00
2008,08,30,00,30,0.60
2008,08,30,00,31,0.20
2008,08,30,00,32,0.00
2008,08,30,00,33,0.20
2008,08,30,00,34,0.00
2008,08,30,00,35,0.00
2008,08,30,00,36,0.00
2008,08,30,00,37,0.00
2008,08,30,00,38,0.00
2008,08,30,00,39,0.40
2008,08,30,00,40,1.30
2008,08,30,00,41,0.10
2008,08,30,00,42,0.10
2008,08,30,00,43,0.00
2008,08,30,00,44,0.00
2008,08,30,00,45,0.00
2008,08,30,00,46,0.00
2008,08,30,00,47,1.00
2008,08,30,00,48,0.10
2008,08,30,00,49,0.10
2008,08,30,00,50,0.00
2008,08,30,00,51,0.00
2008,08,30,00,52,0.00
2008,08,30,00,53,0.00
2008,08,30,00,54,0.00
2008,08,30,00,55,0.00
2008,08,30,00,56,0.00
2008,08,30,00,57,0.00
2008,08,30,00,58,0.00
2008,08,30,00,59,0.00
2008,08,30,01,00,0.20
2008,08,30,01,01,0.40
2008,08,30,01,02,1.50
2008,08,30,01,03,2.60
2008,08,30,01,04,2.90
2008,08,30,01,05,0.50
2008,08,30,01,06,1.80
2008,08,30,01,07,1.00
2008,08,30,01,08,0.10
2008,08,30,01,09,1.00
2008,08,30,01,10,0.00
2008,08,30,01,11,0.00
2008,08,30,01,12,0.00
2008,08,30,01,13,0.00
2008,08,30,01,14,0.00
2008,08,30,01,15,0.00
2008,08,30,01,16,0.00
2008,08,30,01,17,0.00
2008,08,30,01,18,0.00
2008,08,30,01,19,0.00
2008,08,30,01,20,0.00
2008,08,30,01,21,0.00
2008,08,30,01,22,0.00
2008,08,30,01,23,0.00
2008,08,30,01,24,0.00
2008,08,30,01,25,0.00
2008,08,30,01,26,0.00
2008,08,30,01,27,0.00
2008,08,30,01,28,0.00
2008,08,30,01,29,0.00
2008,08,30,01,30,0.00
2008,08,30,01,31,0.00
2008,08,30,01,32,0.00
2008,08,30,01,33,0.00
2008,08,30,01,34,0.00
2008,08,30,01,35,0.00
2008,08,30,01,36,0.00
2008,08,30,01,37,2.60
2008,08,30,01,38,0.30
2008,08,30,01,39,0.00
2008,08,30,01,40,0.00
2008,08,30,01,41,0.00
2008,08,30,01,42,0.00
2008,08,30,01,43,0.00
2008,08,30,01,44,0.30
2008,08,30,01,45,0.50
2008,08,30,01,46,0.20
2008,08,30,01,47,0.00
2008,08,30,01,48,1.90
2008,08,30,01,49,0.10
2008,08,30,01,50,0.40
2008,08,30,01,51,0.40
2008,08,30,01,52,0.00
2008,08,30,01,53,0.00
2008,08,30,01,54,1.50
2008,08,30,01,55,0.40
2008,08,30,01,56,0.00
2008,08,30,01,57,0.10
2008,08,30,01,58,0.00
2008,08,30,01,59,0.90
2008,08,30,02,00,0.80
2008,08,30,02,01,4.30
2008,08,30,02,02,4.70
2008,08,30,02,03,4.30
2008,08,30,02,04,4.10
2008,08,30,02,05,2.90
2008,08,30,02,06,3.10
2008,08,30,02,07,1.90
2008,08,30,02,08,0.50
2008,08,30,02,09,4.10
2008,08,30,02,10,3.60
2008,08,30,02,11,3.10
2008,08,30,02,12,2.10
2008,08,30,02,13,4.40
2008,08,30,02,14,6.80
2008,08,30,02,15,3.70
2008,08,30,02,16,4.40
2008,08,30,02,17,2.70
2008,08,30,02,18,3.40
2008,08,30,02,19,4.60
2008,08,30,02,20,5.50
2008,08,30,02,21,3.70
2008,08,30,02,22,2.50
2008,08,30,02,23,3.70
2008,08,30,02,24,4.40
2008,08,30,02,25,4.50
2008,08,30,02,26,4.90
2008,08,30,02,27,2.30
2008,08,30,02,28,2.10
2008,08,30,02,29,3.40
2008,08,30,02,30,1.60
2008,08,30,02,31,3.10
2008,08,30,02,32,2.40
2008,08,30,02,33,1.00
2008,08,30,02,34,1.40
2008,08,30,02,35,1.30
2008,08,30,02,36,2.20
2008,08,30,02,37,1.30
2008,08,30,02,38,1.90
2008,08,30,02,39,0.20
2008,08,30,02,40,0.20
2008,08,30,02,41,0.60
2008,08,30,02,42,1.40
2008,08,30,02,43,3.10
2008,08,30,02,44,2.60
2008,08,30,02,45,0.60
2008,08,30,02,46,0.10
2008,08,30,02,47,0.60
2008,08,30,02,48,1.30
2008,08,30,02,49,0.00
2008,08,30,02,50,1.50
2008,08,30,02,51,1.60
2008,08,30,02,52,1.80
2008,08,30,02,53,3.00
2008,08,30,02,54,3.30
2008,08,30,02,55,0.20
2008,08,30,02,56,2.80
2008,08,30,02,57,0.40
2008,08,30,02,58,4.60
2008,08,30,02,59,3.10
2008,08,30,03,00,4.80
2008,08,30,03,01,3.00
2008,08,30,03,02,3.20
2008,08,30,03,03,3.50
2008,08,30,03,04,4.60
2008,08,30,03,05,4.60
2008,08,30,03,06,1.20
2008,08,30,03,07,2.60
2008,08,30,03,08,1.60
2008,08,30,03,09,2.10
2008,08,30,03,10,6.10
2008,08,30,03,11,2.10
2008,08,30,03,12,3.00
2008,08,30,03,13,1.40
2008,08,30,03,14,3.80
2008,08,30,03,15,4.40
2008,08,30,03,16,5.20
2008,08,30,03,17,3.80
2008,08,30,03,18,6.60
2008,08,30,03,19,6.60
2008,08,30,03,20,7.50
2008,08,30,03,21,7.50
2008,08,30,03,22,7.60
2008,08,30,03,23,8.40
2008,08,30,03,24,8.30
2008,08,30,03,25,8.90
2008,08,30,03,26,6.70
2008,08,30,03,27,7.20
2008,08,30,03,28,8.10
2008,08,30,03,29,6.90
2008,08,30,03,30,7.20
2008,08,30,03,31,8.10
2008,08,30,03,32,8.10
2008,08,30,03,33,8.10
2008,08,30,03,34,6.50
2008,08,30,03,35,6.90
2008,08,30,03,36,8.60
2008,08,30,03,37,8.00
2008,08,30,03,38,7.10
2008,08,30,03,39,7.10
2008,08,30,03,40,10.80
2008,08,30,03,41,8.00
2008,08,30,03,42,6.30
2008,08,30,03,43,4.70
2008,08,30,03,44,6.70
2008,08,30,03,45,6.20
2008,08,30,03,46,8.70
2008,08,30,03,47,8.20
2008,08,30,03,48,7.20
2008,08,30,03,49,5.70
2008,08,30,03,50,8.90
2008,08,30,03,51,9.20
2008,08,30,03,52,7.10
2008,08,30,03,53,7.30
2008,08,30,03,54,7.50
2008,08,30,03,55,7.80
2008,08,30,03,56,8.80
2008,08,30,03,57,8.90
2008,08,30,03,58,7.90
2008,08,30,03,59,7.60
2008,08,30,04,00,7.00
2008,08,30,04,01,10.30
2008,08,30,04,02,5.30
2008,08,30,04,03,8.30
2008,08,30,04,04,4.40
2008,08,30,04,05,8.30
2008,08,30,04,06,6.30
2008,08,30,04,07,3.80
2008,08,30,04,08,6.90
2008,08,30,04,09,3.10
2008,08,30,04,10,1.80
2008,08,30,04,11,4.90
2008,08,30,04,12,5.90
2008,08,30,04,13,3.90
2008,08,30,04,14,5.90
2008,08,30,04,15,7.90
2008,08,30,04,16,8.70
2008,08,30,04,17,9.30
2008,08,30,04,18,3.50
2008,08,30,04,19,5.60
2008,08,30,04,20,1.60
2008,08,30,04,21,9.40
2008,08,30,04,22,4.30
2008,08,30,04,23,3.10
2008,08,30,04,24,6.00
2008,08,30,04,25,3.10
2008,08,30,04,26,1.40
2008,08,30,04,27,4.60
2008,08,30,04,28,2.80
2008,08,30,04,29,3.60
2008,08,30,04,30,1.50
2008,08,30,04,31,3.80
2008,08,30,04,32,2.60
2008,08,30,04,33,6.60
2008,08,30,04,34,3.60
2008,08,30,04,35,1.70
2008,08,30,04,36,5.60
2008,08,30,04,37,3.80
2008,08,30,04,38,6.10
2008,08,30,04,39,5.60
2008,08,30,04,40,3.50
2008,08,30,04,41,3.10
2008,08,30,04,42,3.30
2008,08,30,04,43,5.70
2008,08,30,04,44,4.50
2008,08,30,04,45,3.40
2008,08,30,04,46,3.50
2008,08,30,04,47,2.60
2008,08,30,04,48,4.50
2008,08,30,04,49,5.20
2008,08,30,04,50,3.60
2008,08,30,04,51,1.50
2008,08,30,04,52,3.50
2008,08,30,04,53,4.80
2008,08,30,04,54,2.50
2008,08,30,04,55,4.50
2008,08,30,04,56,4.80
2008,08,30,04,57,3.90
2008,08,30,04,58,2.80
2008,08,30,04,59,2.10
2008,08,30,05,00,1.30
2008,08,30,05,01,0.00
2008,08,30,05,02,2.50
2008,08,30,05,03,0.30
2008,08,30,05,04,5.80
2008,08,30,05,05,4.40
2008,08,30,05,06,2.80
2008,08,30,05,07,8.40
2008,08,30,05,08,3.50
2008,08,30,05,09,3.60
2008,08,30,05,10,2.70
2008,08,30,05,11,3.40
2008,08,30,05,12,5.20
2008,08,30,05,13,3.80
2008,08,30,05,14,2.80
2008,08,30,05,15,5.60
2008,08,30,05,16,5.70
2008,08,30,05,17,5.10
2008,08,30,05,18,4.20
2008,08,30,05,19,5.10
2008,08,30,05,20,5.90
2008,08,30,05,21,6.30
2008,08,30,05,22,0.80
2008,08,30,05,23,5.10
2008,08,30,05,24,7.70
2008,08,30,05,25,3.40
2008,08,30,05,26,5.10
2008,08,30,05,27,3.40
2008,08,30,05,28,7.20
2008,08,30,05,29,5.80
2008,08,30,05,30,5.60
2008,08,30,05,31,5.30
2008,08,30,05,32,2.00
2008,08,30,05,33,0.00
2008,08,30,05,34,2.70
2008,08,30,05,35,2.20
2008,08,30,05,36,0.60
2008,08,30,05,37,1.80
2008,08,30,05,38,5.00
2008,08,30,05,39,7.00
2008,08,30,05,40,5.60
2008,08,30,05,41,6.30
2008,08,30,05,42,1.90
2008,08,30,05,43,7.00
2008,08,30,05,44,4.80
2008,08,30,05,45,1.80
2008,08,30,05,46,4.60
2008,08,30,05,47,8.50
2008,08,30,05,48,8.40
2008,08,30,05,49,6.10
2008,08,30,05,50,5.90
2008,08,30,05,51,4.30
2008,08,30,05,52,5.90
2008,08,30,05,53,7.10
2008,08,30,05,54,7.70
2008,08,30,05,55,6.80
2008,08,30,05,56,2.60
2008,08,30,05,57,4.40
2008,08,30,05,58,8.00
2008,08,30,05,59,6.60
2008,08,30,06,00,4.60
2008,08,30,06,01,3.10
2008,08,30,06,02,2.00
2008,08,30,06,03,2.90
2008,08,30,06,04,2.40
2008,08,30,06,05,4.20
2008,08,30,06,06,4.30
2008,08,30,06,07,3.10
2008,08,30,06,08,4.60
2008,08,30,06,09,2.60
2008,08,30,06,10,5.20
2008,08,30,06,11,6.90
2008,08,30,06,12,8.80
2008,08,30,06,13,7.70
2008,08,30,06,14,6.90
2008,08,30,06,15,4.00
2008,08,30,06,16,4.90
2008,08,30,06,17,4.30
2008,08,30,06,18,6.50
2008,08,30,06,19,1.30
2008,08,30,06,20,1.10
2008,08,30,06,21,4.60
2008,08,30,06,22,4.70
2008,08,30,06,23,4.60
2008,08,30,06,24,0.50
2008,08,30,06,25,2.10
2008,08,30,06,26,6.20
2008,08,30,06,27,2.30
2008,08,30,06,28,3.10
2008,08,30,06,29,0.70
2008,08,30,06,30,2.20
2008,08,30,06,31,0.30
2008,08,30,06,32,0.80
2008,08,30,06,33,0.20
2008,08,30,06,34,0.60
2008,08,30,06,35,0.50
2008,08,30,06,36,0.20
2008,08,30,06,37,0.90
2008,08,30,06,38,1.50
2008,08,30,06,39,2.50
2008,08,30,06,40,3.20
2008,08,30,06,41,4.10
2008,08,30,06,42,4.70
2008,08,30,06,43,4.40
2008,08,30,06,44,0.60
2008,08,30,06,45,0.20
2008,08,30,06,46,1.20
2008,08,30,06,47,1.20
2008,08,30,06,48,0.60
2008,08,30,06,49,0.70
2008,08,30,06,50,1.10
2008,08,30,06,51,2.10
2008,08,30,06,52,0.70
2008,08,30,06,53,0.40
2008,08,30,06,54,2.60
2008,08,30,06,55,2.50
2008,08,30,06,56,0.30
2008,08,30,06,57,0.80
2008,08,30,06,58,1.40
2008,08,30,06,59,1.30
2008,08,30,07,00,4.00
2008,08,30,07,01,2.60
2008,08,30,07,02,4.20
2008,08,30,07,03,4.70
2008,08,30,07,04,2.80
2008,08,30,07,05,3.20
2008,08,30,07,06,3.30
2008,08,30,07,07,2.90
2008,08,30,07,08,1.40
2008,08,30,07,09,0.90
2008,08,30,07,10,2.80
2008,08,30,07,11,3.10
2008,08,30,07,12,1.00
2008,08,30,07,13,0.10
2008,08,30,07,14,0.10
2008,08,30,07,15,0.90
2008,08,30,07,16,0.10
2008,08,30,07,17,1.00
2008,08,30,07,18,0.00
2008,08,30,07,19,0.00
2008,08,30,07,20,0.00
2008,08,30,07,21,0.00
2008,08,30,07,22,0.10
2008,08,30,07,23,2.30
2008,08,30,07,24,3.40
2008,08,30,07,25,4.30
2008,08,30,07,26,3.20
2008,08,30,07,27,2.50
2008,08,30,07,28,1.90
2008,08,30,07,29,4.50
2008,08,30,07,30,3.90
2008,08,30,07,31,5.20
2008,08,30,07,32,4.20
2008,08,30,07,33,4.80
2008,08,30,07,34,3.00
2008,08,30,07,35,5.30
2008,08,30,07,36,5.80
2008,08,30,07,37,5.50
2008,08,30,07,38,2.90
2008,08,30,07,39,0.90
2008,08,30,07,40,3.80
2008,08,30,07,41,5.20
2008,08,30,07,42,4.50
2008,08,30,07,43,4.80
2008,08,30,07,44,5.30
2008,08,30,07,45,4.60
2008,08,30,07,46,4.50
2008,08,30,07,47,7.00
2008,08,30,07,48,5.90
2008,08,30,07,49,4.10
2008,08,30,07,50,3.40
2008,08,30,07,51,5.20
2008,08,30,07,52,4.70
2008,08,30,07,53,6.40
2008,08,30,07,54,4.00
2008,08,30,07,55,6.10
2008,08,30,07,56,7.50
2008,08,30,07,57,8.70
2008,08,30,07,58,5.00
2008,08,30,07,59,6.20
2008,08,30,08,00,5.40
2008,08,30,08,01,8.00
2008,08,30,08,02,5.60
2008,08,30,08,03,4.90
2008,08,30,08,04,2.30
2008,08,30,08,05,5.50
2008,08,30,08,06,5.10
2008,08,30,08,07,8.20
2008,08,30,08,08,7.70
2008,08,30,08,09,8.10
2008,08,30,08,10,5.10
2008,08,30,08,11,4.50
2008,08,30,08,12,7.40
2008,08,30,08,13,7.10
2008,08,30,08,14,6.40
2008,08,30,08,15,7.60
2008,08,30,08,16,4.80
2008,08,30,08,17,7.20
2008,08,30,08,18,6.80
2008,08,30,08,19,1.00
2008,08,30,08,20,5.80
2008,08,30,08,21,5.70
2008,08,30,08,22,8.00
2008,08,30,08,23,5.90
2008,08,30,08,24,5.50
2008,08,30,08,25,1.20
2008,08,30,08,26,6.30
2008,08,30,08,27,4.80
2008,08,30,08,28,6.40
2008,08,30,08,29,6.30
2008,08,30,08,30,5.10
2008,08,30,08,31,4.40
2008,08,30,08,32,7.70
2008,08,30,08,33,9.10
2008,08,30,08,34,6.80
2008,08,30,08,35,4.90
2008,08,30,08,36,5.20
2008,08,30,08,37,3.20
2008,08,30,08,38,6.70
2008,08,30,08,39,5.00
2008,08,30,08,40,10.10
2008,08,30,08,41,7.60
2008,08,30,08,42,8.10
2008,08,30,08,43,8.20
2008,08,30,08,44,8.80
2008,08,30,08,45,9.70
2008,08,30,08,46,3.40
2008,08,30,08,47,3.70
2008,08,30,08,48,3.60
2008,08,30,08,49,4.50
2008,08,30,08,50,3.80
2008,08,30,08,51,4.40
2008,08,30,08,52,7.10
2008,08,30,08,53,5.60
2008,08,30,08,54,8.00
2008,08,30,08,55,4.70
2008,08,30,08,56,5.50
2008,08,30,08,57,6.30
2008,08,30,08,58,7.50
2008,08,30,08,59,7.40
2008,08,30,09,00,5.10
2008,08,30,09,01,5.20
2008,08,30,09,02,7.60
2008,08,30,09,03,6.60
2008,08,30,09,04,7.70
2008,08,30,09,05,6.90
2008,08,30,09,06,8.70
2008,08,30,09,07,9.80
2008,08,30,09,08,8.30
2008,08,30,09,09,8.30
2008,08,30,09,10,6.00
2008,08,30,09,11,9.40
2008,08,30,09,12,5.30
2008,08,30,09,13,0.40
2008,08,30,09,14,5.60
2008,08,30,09,15,4.10
2008,08,30,09,16,4.10
2008,08,30,09,17,2.00
2008,08,30,09,18,2.00
2008,08,30,09,19,5.00
2008,08,30,09,20,7.20
2008,08,30,09,21,2.50
2008,08,30,09,22,4.80
2008,08,30,09,23,1.50
2008,08,30,09,24,3.00
2008,08,30,09,25,2.50
2008,08,30,09,26,0.60
2008,08,30,09,27,4.70
2008,08,30,09,28,2.20
2008,08,30,09,29,8.50
2008,08,30,09,30,9.40
2008,08,30,09,31,8.80
2008,08,30,09,32,8.80
2008,08,30,09,33,6.70
2008,08,30,09,34,7.60
2008,08,30,09,35,7.70
2008,08,30,09,36,4.50
2008,08,30,09,37,4.50
2008,08,30,09,38,4.00
2008,08,30,09,39,6.00
2008,08,30,09,40,6.50
2008,08,30,09,41,7.60
2008,08,30,09,42,5.90
2008,08,30,09,43,6.40
2008,08,30,09,44,8.10
2008,08,30,09,45,4.30
2008,08,30,09,46,6.20
2008,08,30,09,47,6.90
2008,08,30,09,48,4.70
2008,08,30,09,49,4.40
2008,08,30,09,50,7.20
2008,08,30,09,51,7.60
2008,08,30,09,52,7.10
2008,08,30,09,53,6.70
2008,08,30,09,54,3.90
2008,08,30,09,55,2.30
2008,08,30,09,56,6.00
2008,08,30,09,57,5.30
2008,08,30,09,58,5.60
2008,08,30,09,59,4.70
2008,08,30,10,00,4.30
2008,08,30,10,01,6.00
2008,08,30,10,02,4.80
2008,08,30,10,03,5.30
2008,08,30,10,04,5.50
2008,08,30,10,05,4.30
2008,08,30,10,06,2.50
2008,08,30,10,07,4.40
2008,08,30,10,08,3.80
2008,08,30,10,09,6.10
2008,08,30,10,10,4.50
2008,08,30,10,11,6.60
2008,08,30,10,12,0.60
2008,08,30,10,13,1.70
2008,08,30,10,14,2.50
2008,08,30,10,15,6.30
2008,08,30,10,16,3.60
2008,08,30,10,17,2.80
2008,08,30,10,18,7.20
2008,08,30,10,19,3.00
2008,08,30,10,20,3.70
2008,08,30,10,21,0.30
2008,08,30,10,22,1.60
2008,08,30,10,23,2.30
2008,08,30,10,24,4.80
2008,08,30,10,25,3.80
2008,08,30,10,26,4.80
2008,08,30,10,27,0.30
2008,08,30,10,28,0.10
2008,08,30,10,29,2.80
2008,08,30,10,30,1.10
2008,08,30,10,31,3.70
2008,08,30,10,32,0.30
2008,08,30,10,33,4.50
2008,08,30,10,34,5.80
2008,08,30,10,35,3.20
2008,08,30,10,36,2.80
2008,08,30,10,37,3.60
2008,08,30,10,38,0.20
2008,08,30,10,39,5.70
2008,08,30,10,40,7.40
2008,08,30,10,41,6.90
2008,08,30,10,42,6.30
2008,08,30,10,43,2.50
2008,08,30,10,44,2.60
2008,08,30,10,45,5.10
2008,08,30,10,46,2.40
2008,08,30,10,47,0.90
2008,08,30,10,48,0.00
2008,08,30,10,49,0.10
2008,08,30,10,50,1.20
2008,08,30,10,51,1.00
2008,08,30,10,52,3.00
2008,08,30,10,53,0.90
2008,08,30,10,54,4.50
2008,08,30,10,55,3.50
2008,08,30,10,56,0.80
2008,08,30,10,57,1.40
2008,08,30,10,58,2.90
2008,08,30,10,59,3.20
2008,08,30,11,00,4.20
2008,08,30,11,01,2.40
2008,08,30,11,02,3.50
2008,08,30,11,03,2.40
2008,08,30,11,04,4.70
2008,08,30,11,05,2.60
2008,08,30,11,06,3.60
2008,08,30,11,07,5.30
2008,08,30,11,08,1.90
2008,08,30,11,09,5.10
2008,08,30,11,10,4.30
2008,08,30,11,11,4.00
2008,08,30,11,12,4.00
2008,08,30,11,13,4.40
2008,08,30,11,14,3.40
2008,08,30,11,15,3.10
2008,08,30,11,16,5.50
2008,08,30,11,17,4.70
2008,08,30,11,18,5.60
2008,08,30,11,19,5.90
2008,08,30,11,20,5.10
2008,08,30,11,21,4.40
2008,08,30,11,22,5.10
2008,08,30,11,23,3.30
2008,08,30,11,24,2.90
2008,08,30,11,25,4.30
2008,08,30,11,26,3.10
2008,08,30,11,27,1.80
2008,08,30,11,28,5.00
2008,08,30,11,29,4.90
2008,08,30,11,30,7.20
2008,08,30,11,31,7.70
2008,08,30,11,32,4.50
2008,08,30,11,33,5.60
2008,08,30,11,34,4.90
2008,08,30,11,35,3.60
2008,08,30,11,36,4.90
2008,08,30,11,37,6.70
2008,08,30,11,38,6.00
2008,08,30,11,39,3.60
2008,08,30,11,40,6.00
2008,08,30,11,41,6.90
2008,08,30,11,42,3.40
2008,08,30,11,43,3.60
2008,08,30,11,44,4.00
2008,08,30,11,45,4.20
2008,08,30,11,46,5.80
2008,08,30,11,47,5.50
2008,08,30,11,48,4.70
2008,08,30,11,49,4.70
2008,08,30,11,50,5.00
2008,08,30,11,51,4.30
2008,08,30,11,52,6.40
2008,08,30,11,53,4.10
2008,08,30,11,54,4.50
2008,08,30,11,55,3.00
2008,08,30,11,56,5.60
2008,08,30,11,57,5.40
2008,08,30,11,58,5.80
2008,08,30,11,59,4.10
2008,08,30,12,00,4.60
2008,08,30,12,01,3.90
2008,08,30,12,02,4.50
2008,08,30,12,03,3.00
2008,08,30,12,04,7.20
2008,08,30,12,05,3.30
2008,08,30,12,06,5.50
2008,08,30,12,07,8.50
2008,08,30,12,08,4.60
2008,08,30,12,09,4.60
2008,08,30,12,10,7.40
2008,08,30,12,11,2.10
2008,08,30,12,12,4.00
2008,08,30,12,13,4.30
2008,08,30,12,14,2.30
2008,08,30,12,15,4.20
2008,08,30,12,16,4.10
2008,08,30,12,17,3.60
2008,08,30,12,18,6.00
2008,08,30,12,19,4.40
2008,08,30,12,20,4.10
2008,08,30,12,21,3.80
2008,08,30,12,22,3.80
2008,08,30,12,23,3.40
2008,08,30,12,24,4.80
2008,08,30,12,25,5.50
2008,08,30,12,26,3.40
2008,08,30,12,27,3.30
2008,08,30,12,28,5.10
2008,08,30,12,29,5.00
2008,08,30,12,30,6.00
2008,08,30,12,31,3.80
2008,08,30,12,32,3.00
2008,08,30,12,33,4.70
2008,08,30,12,34,3.30
2008,08,30,12,35,6.00
2008,08,30,12,36,7.00
2008,08,30,12,37,6.40
2008,08,30,12,38,3.00
2008,08,30,12,39,2.40
2008,08,30,12,40,8.90
2008,08,30,12,41,4.90
2008,08,30,12,42,7.80
2008,08,30,12,43,9.50
2008,08,30,12,44,7.30
2008,08,30,12,45,3.90
2008,08,30,12,46,4.30
2008,08,30,12,47,3.00
2008,08,30,12,48,8.20
2008,08,30,12,49,5.20
2008,08,30,12,50,6.70
2008,08,30,12,51,6.20
2008,08,30,12,52,4.80
2008,08,30,12,53,6.80
2008,08,30,12,54,5.50
2008,08,30,12,55,4.30
2008,08,30,12,56,3.50
2008,08,30,12,57,3.20
2008,08,30,12,58,4.60
2008,08,30,12,59,4.70
2008,08,30,13,00,4.70
2008,08,30,13,01,3.60
2008,08,30,13,02,3.00
2008,08,30,13,03,4.40
2008,08,30,13,04,5.10
2008,08,30,13,05,1.80
2008,08,30,13,06,3.30
2008,08,30,13,07,5.70
2008,08,30,13,08,3.40
2008,08,30,13,09,6.10
2008,08,30,13,10,5.30
2008,08,30,13,11,0.90
2008,08,30,13,12,2.70
2008,08,30,13,13,3.10
2008,08,30,13,14,4.30
2008,08,30,13,15,3.20
2008,08,30,13,16,4.90
2008,08,30,13,17,3.90
2008,08,30,13,18,3.80
2008,08,30,13,19,4.10
2008,08,30,13,20,5.50
2008,08,30,13,21,3.10
2008,08,30,13,22,4.70
2008,08,30,13,23,3.00
2008,08,30,13,24,3.20
2008,08,30,13,25,5.10
2008,08,30,13,26,4.90
2008,08,30,13,27,5.60
2008,08,30,13,28,3.50
2008,08,30,13,29,2.80
2008,08,30,13,30,3.50
2008,08,30,13,31,5.20
2008,08,30,13,32,3.10
2008,08,30,13,33,3.50
2008,08,30,13,34,5.10
2008,08,30,13,35,5.50
2008,08,30,13,36,1.70
2008,08,30,13,37,4.60
2008,08,30,13,38,3.90
2008,08,30,13,39,5.50
2008,08,30,13,40,4.80
2008,08,30,13,41,2.10
2008,08,30,13,42,4.70
2008,08,30,13,43,3.80
2008,08,30,13,44,0.70
2008,08,30,13,45,2.00
2008,08,30,13,46,3.40
2008,08,30,13,47,9.50
2008,08,30,13,48,4.20
2008,08,30,13,49,4.70
2008,08,30,13,50,4.20
2008,08,30,13,51,3.60
2008,08,30,13,52,6.80
2008,08,30,13,53,8.60
2008,08,30,13,54,4.70
2008,08,30,13,55,5.90
2008,08,30,13,56,5.80
2008,08,30,13,57,4.80
2008,08,30,13,58,5.00
2008,08,30,13,59,4.20
2008,08,30,14,00,4.90
2008,08,30,14,01,2.40
2008,08,30,14,02,5.70
2008,08,30,14,03,8.30
2008,08,30,14,04,8.30
2008,08,30,14,05,7.10
2008,08,30,14,06,7.10
2008,08,30,14,07,7.00
2008,08,30,14,08,6.20
2008,08,30,14,09,7.80
2008,08,30,14,10,5.90
2008,08,30,14,11,5.20
2008,08,30,14,12,4.40
2008,08,30,14,13,4.50
2008,08,30,14,14,3.40
2008,08,30,14,15,5.20
2008,08,30,14,16,5.10
2008,08,30,14,17,5.60
2008,08,30,14,18,6.90
2008,08,30,14,19,5.60
2008,08,30,14,20,6.40
2008,08,30,14,21,3.10
2008,08,30,14,22,5.80
2008,08,30,14,23,4.80
2008,08,30,14,24,5.20
2008,08,30,14,25,4.80
2008,08,30,14,26,8.00
2008,08,30,14,27,5.90
2008,08,30,14,28,4.10
2008,08,30,14,29,5.10
2008,08,30,14,30,5.70
2008,08,30,14,31,6.90
2008,08,30,14,32,4.70
2008,08,30,14,33,5.00
2008,08,30,14,34,7.70
2008,08,30,14,35,5.80
2008,08,30,14,36,6.50
2008,08,30,14,37,8.00
2008,08,30,14,38,8.60
2008,08,30,14,39,7.00
2008,08,30,14,40,6.20
2008,08,30,14,41,6.60
2008,08,30,14,42,8.10
2008,08,30,14,43,6.70
2008,08,30,14,44,6.50
2008,08,30,14,45,4.40
2008,08,30,14,46,4.50
2008,08,30,14,47,4.40
2008,08,30,14,48,5.10
2008,08,30,14,49,5.60
2008,08,30,14,50,4.80
2008,08,30,14,51,6.40
2008,08,30,14,52,7.20
2008,08,30,14,53,7.60
2008,08,30,14,54,6.40
2008,08,30,14,55,3.30
2008,08,30,14,56,3.10
2008,08,30,14,57,2.70
2008,08,30,14,58,3.90
2008,08,30,14,59,6.00
2008,08,30,15,00,5.20
2008,08,30,15,01,3.60
2008,08,30,15,02,4.60
2008,08,30,15,03,7.90
2008,08,30,15,04,6.50
2008,08,30,15,05,4.80
2008,08,30,15,06,4.00
2008,08,30,15,07,7.00
2008,08,30,15,08,5.70
2008,08,30,15,09,8.60
2008,08,30,15,10,6.30
2008,08,30,15,11,6.30
2008,08,30,15,12,6.80
2008,08,30,15,13,3.80
2008,08,30,15,14,5.50
2008,08,30,15,15,6.10
2008,08,30,15,16,7.60
2008,08,30,15,17,7.10
2008,08,30,15,18,6.40
2008,08,30,15,19,6.90
2008,08,30,15,20,5.70
2008,08,30,15,21,5.90
2008,08,30,15,22,4.10
2008,08,30,15,23,2.60
2008,08,30,15,24,4.30
2008,08,30,15,25,5.90
2008,08,30,15,26,3.90
2008,08,30,15,27,4.30
2008,08,30,15,28,4.60
2008,08,30,15,29,2.10
2008,08,30,15,30,3.10
2008,08,30,15,31,4.80
2008,08,30,15,32,3.80
2008,08,30,15,33,6.00
2008,08,30,15,34,6.60
2008,08,30,15,35,5.10
2008,08,30,15,36,4.10
2008,08,30,15,37,3.90
2008,08,30,15,38,5.00
2008,08,30,15,39,5.70
2008,08,30,15,40,7.30
2008,08,30,15,41,7.20
2008,08,30,15,42,7.00
2008,08,30,15,43,4.70
2008,08,30,15,44,6.20
2008,08,30,15,45,2.00
2008,08,30,15,46,5.50
2008,08,30,15,47,3.80
2008,08,30,15,48,3.90
2008,08,30,15,49,4.10
2008,08,30,15,50,5.40
2008,08,30,15,51,5.20
2008,08,30,15,52,5.90
2008,08,30,15,53,5.30
2008,08,30,15,54,6.70
2008,08,30,15,55,3.70
2008,08,30,15,56,5.50
2008,08,30,15,57,5.70
2008,08,30,15,58,4.50
2008,08,30,15,59,2.30
2008,08,30,16,00,4.30
2008,08,30,16,01,4.80
2008,08,30,16,02,2.40
2008,08,30,16,03,2.10
2008,08,30,16,04,1.20
2008,08,30,16,05,1.90
2008,08,30,16,06,1.90
2008,08,30,16,07,2.00
2008,08,30,16,08,2.30
2008,08,30,16,09,2.30
2008,08,30,16,10,4.40
2008,08,30,16,11,3.10
2008,08,30,16,12,3.90
2008,08,30,16,13,2.00
2008,08,30,16,14,1.60
2008,08,30,16,15,1.20
2008,08,30,16,16,4.20
2008,08,30,16,17,2.10
2008,08,30,16,18,3.60
2008,08,30,16,19,2.30
2008,08,30,16,20,1.70
2008,08,30,16,21,1.60
2008,08,30,16,22,2.50
2008,08,30,16,23,0.10
2008,08,30,16,24,1.40
2008,08,30,16,25,3.70
2008,08,30,16,26,1.90
2008,08,30,16,27,1.40
2008,08,30,16,28,1.10
2008,08,30,16,29,2.40
2008,08,30,16,30,0.60
2008,08,30,16,31,2.30
2008,08,30,16,32,0.80
2008,08,30,16,33,1.40
2008,08,30,16,34,0.70
2008,08,30,16,35,1.20
2008,08,30,16,36,0.70
2008,08,30,16,37,1.50
2008,08,30,16,38,0.20
2008,08,30,16,39,1.50
2008,08,30,16,40,3.30
2008,08,30,16,41,3.30
2008,08,30,16,42,3.00
2008,08,30,16,43,1.00
2008,08,30,16,44,4.90
2008,08,30,16,45,5.00
2008,08,30,16,46,2.70
2008,08,30,16,47,3.80
2008,08,30,16,48,3.80
2008,08,30,16,49,2.40
2008,08,30,16,50,3.70
2008,08,30,16,51,0.30
2008,08,30,16,52,1.40
2008,08,30,16,53,1.80
2008,08,30,16,54,1.90
2008,08,30,16,55,3.30
2008,08,30,16,56,5.30
2008,08,30,16,57,3.90
2008,08,30,16,58,6.20
2008,08,30,16,59,2.90
2008,08,30,17,00,0.90
2008,08,30,17,01,3.20
2008,08,30,17,02,0.90
2008,08,30,17,03,0.30
2008,08,30,17,04,1.30
2008,08,30,17,05,0.60
2008,08,30,17,06,1.50
2008,08,30,17,07,1.80
2008,08,30,17,08,1.30
2008,08,30,17,09,2.60
2008,08,30,17,10,0.20
2008,08,30,17,11,2.50
2008,08,30,17,12,5.10
2008,08,30,17,13,4.10
2008,08,30,17,14,3.90
2008,08,30,17,15,3.40
2008,08,30,17,16,6.50
2008,08,30,17,17,5.40
2008,08,30,17,18,7.60
2008,08,30,17,19,3.10
2008,08,30,17,20,2.20
2008,08,30,17,21,4.80
2008,08,30,17,22,5.30
2008,08,30,17,23,4.00
2008,08,30,17,24,3.50
2008,08,30,17,25,1.80
2008,08,30,17,26,1.10
2008,08,30,17,27,1.00
2008,08,30,17,28,0.40
2008,08,30,17,29,2.30
2008,08,30,17,30,3.80
2008,08,30,17,31,5.50
2008,08,30,17,32,7.10
2008,08,30,17,33,6.60
2008,08,30,17,34,7.20
2008,08,30,17,35,5.90
2008,08,30,17,36,4.30
2008,08,30,17,37,3.60
2008,08,30,17,38,4.40
2008,08,30,17,39,4.40
2008,08,30,17,40,2.20
2008,08,30,17,41,5.10
2008,08,30,17,42,5.20
2008,08,30,17,43,2.70
2008,08,30,17,44,3.10
2008,08,30,17,45,4.00
2008,08,30,17,46,1.90
2008,08,30,17,47,3.40
2008,08,30,17,48,1.60
2008,08,30,17,49,0.90
2008,08,30,17,50,0.60
2008,08,30,17,51,2.20
2008,08,30,17,52,5.70
2008,08,30,17,53,5.00
2008,08,30,17,54,5.90
2008,08,30,17,55,5.10
2008,08,30,17,56,3.20
2008,08,30,17,57,2.50
2008,08,30,17,58,5.80
2008,08,30,17,59,4.60
2008,08,30,18,00,3.20
2008,08,30,18,01,0.70
2008,08,30,18,02,2.00
2008,08,30,18,03,5.70
2008,08,30,18,04,5.40
2008,08,30,18,05,5.00
2008,08,30,18,06,5.90